This is the latest recevied weather packets stored in our database for station/object N9EA. If no packets are shown the sender has not sent any weather packets the latest 10 day(s).
| Time | Temp. | Humidity | Pressure | Rain* | Wind** | Luminosity | Snow |
|---|---|---|---|---|---|---|---|
| 1778158746 | 8.33° C | 59% | 1013.7 hPa | 0 mm | - | 115 W/m² | - |
| 1778158444 | 8.33° C | 62% | 1013.6 hPa | 0 mm | - | 127 W/m² | - |
| 1778158141 | 7.78° C | 62% | 1013.6 hPa | 0 mm | - | 96 W/m² | - |
| 1778157836 | 7.78° C | 62% | 1013.6 hPa | 0 mm | - | 120 W/m² | - |
| 1778157535 | 7.78° C | 61% | 1013.6 hPa | 0 mm | - | 86 W/m² | - |
| 1778157232 | 8.33° C | 60% | 1013.6 hPa | 0 mm | - | 86 W/m² | - |
| 1778156928 | 8.33° C | 59% | 1013.8 hPa | 0 mm | - | 105 W/m² | - |
| 1778156624 | 7.78° C | 60% | 1013.6 hPa | 0 mm | - | 143 W/m² | - |
| 1778156320 | 7.78° C | 61% | 1013.5 hPa | 0 mm | - | 133 W/m² | - |
| 1778156016 | 7.22° C | 61% | 1013.6 hPa | 0 mm | - | 107 W/m² | - |
| 1778155713 | 6.67° C | 62% | 1013.8 hPa | 0 mm | - | 101 W/m² | - |
| 1778155409 | 6.11° C | 62% | 1013.6 hPa | 0 mm | - | 79 W/m² | - |
| 1778155106 | 5.56° C | 63% | 1013.6 hPa | 0 mm | - | 67 W/m² | - |
| 1778154801 | 5.56° C | 62% | 1013.8 hPa | 0 mm | - | 44 W/m² | - |
| 1778154497 | 5.56° C | 62% | 1013.8 hPa | 0 mm | - | 38 W/m² | - |
| 1778154194 | 5° C | 62% | 1013.7 hPa | 0 mm | - | 36 W/m² | - |
| 1778153892 | 5° C | 63% | 1013.7 hPa | 0 mm | - | 38 W/m² | - |
| 1778153588 | 4.44° C | 64% | 1013.7 hPa | 0 mm | - | 35 W/m² | - |
| 1778153286 | 4.44° C | 65% | 1013.9 hPa | 0 mm | - | 26 W/m² | - |
| 1778152983 | 3.89° C | 65% | 1013.7 hPa | 0 mm | - | 19 W/m² | - |
| 1778152681 | 3.89° C | 67% | 1013.7 hPa | 0 mm | - | 15 W/m² | - |
| 1778152377 | 3.89° C | 67% | 1013.8 hPa | 0 mm | - | 12 W/m² | - |
| 1778152073 | 3.33° C | 68% | 1013.8 hPa | 0 mm | - | 9 W/m² | - |
| 1778151770 | 3.33° C | 68% | 1013.7 hPa | 0 mm | - | 7 W/m² | - |
| 1778151467 | 3.33° C | 69% | 1013.8 hPa | 0 mm | - | 4 W/m² | - |
* Rain latest hour (hover to see other rain measurements)
** Current wind speed in m/s (hover to see current wind gust speed)